Location: Lecco
(45.8566°N, 9.3977°E)
Time: 05:39:26
(UTC+02:00)

S-56A Canister/Altair - Pass Details

Date: 31 July 2019
Orbit: 633 x 2499 km, 38.9° (Epoch: 19 August)

Event Time Altitude Azimuth Distance (km) Brightness Sun altitude
Rises 10:32:36 0° 279° (W) 5,224 11.4 44.5°
Reaches altitude 10° 10:35:58 10° 273° (W) 4,451 11.1 45.0°
Maximum altitude 10:47:31 41° 209° (SSW) 3,135 11.1 46.8°
Drops below altitude 10° 11:00:57 10° 147° (SSE) 5,143 12.5 48.9°
Sets 11:05:13 0° 141° (SE) 6,088 12.7 49.5°
